When you browse on this site, cookies collect data to enhance your experience and personalize the content and advertising you see.
Visit our Privacy Policy to learn more. By continuing to use the site, you agree to this use of cookies and data.
  • In Lithuania
  • List of Countries
  • For 7 days
  • Water Temperature
  • Weather Map
  • Weather Widgets
  • user-avatar
    Login

    Hourly Weather Gaborone

    Today, 20 September, Friday

    Time Temperature Precipitation Wind Pressure Humidity
    00:00 +21°C° 0 mm 3 mps 681 mmHg 29%
    01:00 +20°C° 0 mm 2 mps 681 mmHg 34%
    02:00 +19°C° 0 mm 2 mps 681 mmHg 40%
    03:00 +19°C° 0 mm 2 mps 681 mmHg 46%
    04:00 +18°C° 0 mm 2 mps 681 mmHg 52%
    05:00 +17°C° 0 mm 2 mps 680 mmHg 57%
    06:00 +18°C° 0 mm 2 mps 681 mmHg 55%
    07:00 +20°C° 0 mm 2 mps 682 mmHg 52%
    08:00 +21°C° 0 mm 2 mps 682 mmHg 49%
    09:00 +25°C° 0 mm 3 mps 683 mmHg 40%
    10:00 +27°C° 0 mm 4 mps 683 mmHg 30%
    11:00 +30°C° 0 mm 5 mps 683 mmHg 21%
    12:00 +33°C° 0 mm 5 mps 682 mmHg 18%
    13:00 +34°C° 0 mm 5 mps 682 mmHg 14%
    14:00 +36°C° 0 mm 5 mps 681 mmHg 11%
    15:00 +35°C° 0 mm 5 mps 680 mmHg 11%
    16:00 +35°C° 0 mm 5 mps 680 mmHg 11%
    17:00 +35°C° 0 mm 5 mps 679 mmHg 11%
    18:00 +33°C° 0 mm 5 mps 679 mmHg 13%
    19:00 +29°C° 0 mm 4 mps 679 mmHg 16%
    20:00 +27°C° 0 mm 3 mps 679 mmHg 19%
    21:00 +26°C° 0 mm 3 mps 679 mmHg 20%
    22:00 +25°C° 0 mm 2 mps 679 mmHg 21%
    23:00 +24°C° 0 mm 2 mps 679 mmHg 22%

    Tomorrow, 21 September, Saturday

    Time Temperature Precipitation Wind Pressure Humidity
    00:00 +23°C° 0 mm 2 mps 679 mmHg 25%
    01:00 +21°C° 0 mm 2 mps 679 mmHg 29%
    02:00 +20°C° 0 mm 2 mps 678 mmHg 32%
    03:00 +19°C° 0 mm 2 mps 678 mmHg 36%
    04:00 +18°C° 0 mm 2 mps 678 mmHg 41%
    05:00 +18°C° 0 mm 2 mps 678 mmHg 45%
    06:00 +19°C° 0 mm 2 mps 678 mmHg 44%
    07:00 +20°C° 0 mm 3 mps 679 mmHg 42%
    08:00 +22°C° 0 mm 3 mps 679 mmHg 41%
    09:00 +25°C° 0 mm 3 mps 679 mmHg 36%
    10:00 +28°C° 0 mm 4 mps 680 mmHg 31%
    11:00 +30°C° 0 mm 4 mps 680 mmHg 26%
    12:00 +32°C° 0 mm 4 mps 679 mmHg 22%
    13:00 +34°C° 0 mm 4 mps 678 mmHg 18%
    14:00 +35°C° 0 mm 4 mps 678 mmHg 15%
    15:00 +35°C° 0 mm 4 mps 677 mmHg 14%
    16:00 +35°C° 0 mm 4 mps 677 mmHg 13%
    17:00 +35°C° 0 mm 3 mps 677 mmHg 12%
    18:00 +31°C° 0 mm 3 mps 676 mmHg 14%
    19:00 +29°C° 0 mm 3 mps 676 mmHg 17%
    20:00 +26°C° 0 mm 2 mps 676 mmHg 20%
    21:00 +25°C° 0 mm 2 mps 676 mmHg 21%
    22:00 +24°C° 0 mm 2 mps 676 mmHg 23%
    23:00 +23°C° 0 mm 2 mps 676 mmHg 25%

    Day after tomorrow, 22 September, Sunday

    Time Temperature Precipitation Wind Pressure Humidity
    00:00 +23°C° 0 mm 2 mps 676 mmHg 27%
    01:00 +21°C° 0 mm 2 mps 675 mmHg 28%
    02:00 +20°C° 0 mm 2 mps 675 mmHg 30%
    03:00 +19°C° 0 mm 2 mps 675 mmHg 31%
    04:00 +19°C° 0 mm 2 mps 675 mmHg 33%
    05:00 +18°C° 0 mm 3 mps 675 mmHg 34%
    06:00 +20°C° 0 mm 3 mps 676 mmHg 31%
    07:00 +21°C° 0 mm 3 mps 676 mmHg 28%
    08:00 +24°C° 0 mm 3 mps 677 mmHg 26%
    09:00 +26°C° 0 mm 3 mps 677 mmHg 22%
    10:00 +29°C° 0 mm 3 mps 678 mmHg 18%
    11:00 +33°C° 0 mm 3 mps 678 mmHg 14%
    12:00 +34°C° 0 mm 3 mps 678 mmHg 12%
    13:00 +36°C° 0 mm 2 mps 677 mmHg 10%
    14:00 +38°C° 0 mm 2 mps 677 mmHg 8%
    15:00 +37°C° 0 mm 3 mps 677 mmHg 7%
    16:00 +37°C° 0 mm 3 mps 676 mmHg 7%
    17:00 +37°C° 0 mm 3 mps 676 mmHg 6%
    18:00 +34°C° 0 mm 3 mps 676 mmHg 8%
    19:00 +30°C° 0 mm 2 mps 676 mmHg 9%
    20:00 +28°C° 0 mm 2 mps 676 mmHg 11%
    21:00 +27°C° 0 mm 2 mps 676 mmHg 13%
    22:00 +26°C° 0 mm 3 mps 676 mmHg 15%
    23:00 +24°C° 0 mm 3 mps 677 mmHg 18%

    23 September, Monday

    Time Temperature Precipitation Wind Pressure Humidity
    00:00 +24°C° 0 mm 3 mps 677 mmHg 20%
    01:00 +22°C° 0 mm 3 mps 677 mmHg 22%
    02:00 +21°C° 0 mm 3 mps 676 mmHg 25%
    03:00 +20°C° 0 mm 3 mps 676 mmHg 24%
    04:00 +19°C° 0 mm 2 mps 677 mmHg 24%
    05:00 +19°C° 0 mm 2 mps 677 mmHg 24%
    06:00 +20°C° 0 mm 2 mps 677 mmHg 21%
    07:00 +23°C° 0 mm 2 mps 678 mmHg 18%
    08:00 +25°C° 0 mm 2 mps 679 mmHg 16%
    09:00 +28°C° 0 mm 3 mps 679 mmHg 15%
    10:00 +30°C° 0 mm 4 mps 680 mmHg 13%
    11:00 +33°C° 0 mm 4 mps 680 mmHg 12%
    12:00 +35°C° 0 mm 4 mps 680 mmHg 11%
    13:00 +36°C° 0 mm 3 mps 679 mmHg 11%
    14:00 +37°C° 0 mm 2 mps 679 mmHg 10%
    15:00 +37°C° 0 mm 2 mps 678 mmHg 10%
    16:00 +37°C° 0 mm 2 mps 678 mmHg 9%
    17:00 +36°C° 0 mm 2 mps 678 mmHg 9%
    18:00 +34°C° 0 mm 4 mps 678 mmHg 17%
    19:00 +30°C° 0 mm 5 mps 678 mmHg 24%
    20:00 +28°C° 0 mm 6 mps 679 mmHg 32%
    21:00 +26°C° 0 mm 6 mps 679 mmHg 40%
    22:00 +23°C° 0 mm 5 mps 679 mmHg 47%
    23:00 +21°C° 0 mm 5 mps 679 mmHg 55%

    24 September, Tuesday

    Time Temperature Precipitation Wind Pressure Humidity
    00:00 +20°C° 0 mm 4 mps 679 mmHg 61%
    01:00 +19°C° 0 mm 4 mps 679 mmHg 67%
    02:00 +17°C° 0 mm 4 mps 679 mmHg 73%
    03:00 +17°C° 0 mm 4 mps 679 mmHg 74%
    04:00 +15°C° 0 mm 5 mps 679 mmHg 76%
    05:00 +15°C° 0 mm 5 mps 679 mmHg 77%
    06:00 +15°C° 0 mm 5 mps 680 mmHg 76%
    07:00 +15°C° 0 mm 5 mps 680 mmHg 74%
    08:00 +16°C° 0 mm 5 mps 681 mmHg 73%
    09:00 +17°C° 0 mm 5 mps 681 mmHg 66%
    10:00 +20°C° 0 mm 4 mps 681 mmHg 60%
    11:00 +21°C° 0 mm 4 mps 681 mmHg 53%
    12:00 +25°C° 0 mm 3 mps 680 mmHg 44%
    13:00 +27°C° 0 mm 3 mps 680 mmHg 35%
    14:00 +30°C° 0 mm 2 mps 680 mmHg 26%
    15:00 +30°C° 0 mm 3 mps 679 mmHg 25%
    16:00 +30°C° 0 mm 3 mps 679 mmHg 23%
    17:00 +30°C° 0 mm 3 mps 678 mmHg 22%
    18:00 +28°C° 0 mm 3 mps 678 mmHg 26%
    19:00 +26°C° 0 mm 3 mps 678 mmHg 30%
    20:00 +22°C° 0 mm 3 mps 678 mmHg 34%
    21:00 +21°C° 0 mm 3 mps 678 mmHg 39%
    22:00 +20°C° 0 mm 3 mps 678 mmHg 43%
    23:00 +19°C° 0 mm 3 mps 678 mmHg 48%

    25 September, Wednesday

    Time Temperature Precipitation Wind Pressure Humidity
    00:00 +19°C° 0 mm 3 mps 678 mmHg 53%
    01:00 +18°C° 0 mm 2 mps 678 mmHg 58%
    02:00 +17°C° 0 mm 2 mps 678 mmHg 64%
    03:00 +16°C° 0 mm 2 mps 678 mmHg 69%
    04:00 +14°C° 0 mm 3 mps 678 mmHg 75%
    05:00 +13°C° 0 mm 3 mps 678 mmHg 81%
    06:00 +14°C° 0 mm 4 mps 679 mmHg 79%
    07:00 +15°C° 0 mm 5 mps 679 mmHg 77%
    08:00 +15°C° 0 mm 6 mps 680 mmHg 75%
    09:00 +16°C° 0 mm 6 mps 680 mmHg 69%
    10:00 +19°C° 0 mm 5 mps 680 mmHg 63%
    11:00 +20°C° 0 mm 5 mps 681 mmHg 56%
    12:00 +23°C° 0 mm 5 mps 680 mmHg 49%
    13:00 +26°C° 0 mm 5 mps 680 mmHg 41%
    14:00 +28°C° 0 mm 5 mps 680 mmHg 34%
    15:00 +28°C° 0 mm 5 mps 680 mmHg 33%
    16:00 +28°C° 0 mm 5 mps 680 mmHg 33%
    17:00 +28°C° 0 mm 5 mps 680 mmHg 32%
    18:00 +26°C° 0 mm 4 mps 680 mmHg 37%
    19:00 +23°C° 0 mm 4 mps 680 mmHg 42%
    20:00 +21°C° 0 mm 4 mps 681 mmHg 47%
    21:00 +20°C° 0 mm 5 mps 681 mmHg 51%
    22:00 +19°C° 0 mm 6 mps 681 mmHg 56%
    23:00 +17°C° 0 mm 7 mps 681 mmHg 60%
    Show more